Location: Go?cza
(50.3372°N, 19.9313°E)
Time: 00:51:29
(UTC+00:00)

NPP - Pass Details

Date: 23 May 2024
Orbit: 826 x 827 km, 98.7° (Epoch: 18 June)

Event Time Altitude Azimuth Distance (km) Brightness Sun altitude
Rises 00:58:25 0° 13° (NNE) 3,380 8.3 -12.5°
Reaches altitude 10° 01:00:47 10° 11° (N) 2,442 7.2 -12.3°
Maximum altitude 01:06:09 67° 290° (WNW) 900 3.8 -11.8°
Enters shadow 01:10:36 15° 210° (SSW) 2,091 5.1 -11.3°
